DW5010 Weather Reports


Display with metric or nautical units.
time (UTC)temp
F
wind
direction
speed
MPH
gust
MPH
rain 1hr
in
rain 24hr
in
rain mn
in
humidity
%
barometer
mb
20200403084937 40 103 0.0 2.0 0.00 0.00 0.00 83 1018.9
20200403084447 40 112 0.0 2.0 0.00 0.00 0.00 83 1018.9
20200403083937 40 108 0.0 2.0 0.00 0.00 0.00 84 1018.7
20200403083446 39 102 0.0 2.0 0.00 0.00 0.00 83 1018.7
20200403082938 40 120 0.0 2.0 0.00 0.00 0.00 82 1018.8
20200403082447 40 96 0.0 2.0 0.00 0.00 0.00 82 1018.8
20200403081955 40 110 0.0 2.0 0.00 0.00 0.00 81 1018.9
20200403081445 40 128 0.0 3.0 0.00 0.00 0.00 81 1018.9
20200403080952 40 97 0.0 3.0 0.00 0.00 0.00 81 1018.9
20200403080444 40 94 0.0 4.0 0.00 0.00 0.00 81 1018.9
20200403075952 39 115 1.0 4.0 0.00 0.00 0.00 81 1018.9
20200403075441 40 122 0.0 1.0 0.00 0.00 0.00 81 1018.9
20200403074950 39 115 0.0 1.0 0.00 0.00 0.00 81 1018.9
20200403074443 39 105 0.0 2.0 0.00 0.00 0.00 81 1018.9
20200403073952 39 101 0.0 2.0 0.00 0.00 0.00 80 1019.0
20200403073441 39 108 0.0 0.0 0.00 0.00 0.00 80 1019.0
20200403072950 39 108 0.0 0.0 0.00 0.00 0.00 81 1019.1
20200403072439 39 108 0.0 1.0 0.00 0.00 0.00 81 1019.1
20200403071947 39 108 0.0 1.0 0.00 0.00 0.00 81 1019.1
20200403071458 39 108 0.0 0.0 0.00 0.00 0.00 81 1019.1
20200403070944 39 108 0.0 0.0 0.00 0.00 0.00 81 1019.1
20200403070455 39 108 0.0 1.0 0.00 0.00 0.00 82 1019.2
20200403065946 39 108 0.0 0.0 0.00 0.00 0.00 82 1019.2
20200403065457 39 108 0.0 0.0 0.00 0.00 0.00 82 1019.3
20200403064944 38 108 0.0 0.0 0.00 0.00 0.00 81 1019.3
20200403064454 38 108 0.0 0.0 0.00 0.00 0.00 82 1019.2
20200403063950 38 108 0.0 0.0 0.00 0.00 0.00 81 1019.3
20200403063451 38 108 0.0 0.0 0.00 0.00 0.00 80 1019.3
20200403062941 39 108 0.0 0.0 0.00 0.00 0.00 80 1019.3
20200403062450 39 108 0.0 0.0 0.00 0.00 0.00 79 1019.3
20200403061939 39 108 0.0 0.0 0.00 0.00 0.00 79 1019.3
20200403061452 39 108 0.0 0.0 0.00 0.00 0.00 82 1019.4
20200403060940 39 108 0.0 0.0 0.00 0.00 0.00 79 1019.4
20200403060451 40 108 0.0 0.0 0.00 0.00 0.00 79 1019.4
20200403055940 40 108 0.0 0.0 0.00 0.00 0.00 82 1019.5
20200403055449 39 108 0.0 0.0 0.00 0.00 0.00 79 1019.5
20200403054955 39 108 0.0 0.0 0.00 0.00 0.00 81 1019.4
20200403054444 39 108 0.0 0.0 0.00 0.00 0.00 80 1019.2
20200403053954 40 108 0.0 0.0 0.00 0.00 0.00 78 1019.3
20200403053443 40 108 0.0 0.0 0.00 0.00 0.00 85 1019.2
20200403052935 40 108 0.0 0.0 0.00 0.00 0.00 80 1019.2
20200403052445 40 108 0.0 0.0 0.00 0.00 0.00 83 1019.0
20200403051952 39 108 0.0 0.0 0.00 0.00 0.00 88 1019.1
20200403051443 38 108 0.0 0.0 0.00 0.00 0.00 81 1019.0
20200403050952 38 108 0.0 0.0 0.00 0.00 0.00 83 1019.1
20200403050443 38 108 0.0 0.0 0.00 0.00 0.00 83 1019.1
20200403045952 38 108 0.0 0.0 0.00 0.00 0.00 82 1019.0
20200403045439 38 108 0.0 0.0 0.00 0.00 0.00 82 1019.1
20200403044950 38 108 0.0 0.0 0.00 0.00 0.00 83 1019.1
20200403044444 38 108 0.0 0.0 0.00 0.00 0.00 81 1019.1
20200403043952 38 108 0.0 0.0 0.00 0.00 0.00 81 1019.1
20200403043441 38 108 0.0 0.0 0.00 0.00 0.00 82 1019.1
20200403042950 38 108 0.0 0.0 0.00 0.00 0.00 81 1019.1
20200403042439 38 108 0.0 0.0 0.00 0.00 0.00 81 1019.2
20200403041948 39 108 0.0 0.0 0.00 0.00 0.00 81 1019.1
20200403041439 38 108 0.0 0.0 0.00 0.00 0.00 80 1019.1
20200403040947 39 108 0.0 0.0 0.00 0.00 0.00 79 1019.1
20200403040441 40 108 0.0 0.0 0.00 0.00 0.00 82 1019.1
20200403035950 39 108 0.0 0.0 0.00 0.00 0.00 85 1019.0
20200403035438 39 108 0.0 0.0 0.00 0.00 0.00 85 1019.1
20200403034947 38 108 0.0 0.0 0.00 0.00 0.00 84 1019.2
20200403034437 38 108 0.0 0.0 0.00 0.00 0.00 79 1019.2
20200403033945 39 108 0.0 0.0 0.00 0.00 0.00 79 1019.2
20200403033453 39 108 0.0 0.0 0.00 0.00 0.00 79 1019.1
20200403032943 39 108 0.0 0.0 0.00 0.00 0.00 78 1019.0
20200403032452 40 108 0.0 0.0 0.00 0.00 0.00 79 1019.0
20200403031946 40 108 0.0 0.0 0.00 0.00 0.00 81 1019.0
20200403031436 39 108 0.0 0.0 0.00 0.00 0.00 78 1019.0
20200403030944 39 108 0.0 0.0 0.00 0.00 0.00 77 1019.0
20200403030455 40 108 0.0 0.0 0.00 0.00 0.00 77 1019.1
20200403025945 40 108 0.0 0.0 0.00 0.00 0.00 77 1019.1
20200403025454 40 108 0.0 0.0 0.00 0.00 0.00 77 1019.1
20200403024941 40 108 0.0 0.0 0.00 0.00 0.00 76 1019.1
20200403024450 40 108 0.0 0.0 0.00 0.00 0.00 76 1019.1
20200403023939 40 108 0.0 0.0 0.00 0.00 0.00 75 1019.1
20200403023455 40 108 0.0 0.0 0.00 0.00 0.00 75 1019.1
20200403022945 41 108 0.0 0.0 0.00 0.00 0.00 74 1019.0
20200403022454 41 108 0.0 0.0 0.00 0.00 0.00 74 1019.0
20200403021942 41 108 0.0 0.0 0.00 0.00 0.00 73 1019.2
20200403021452 41 108 0.0 0.0 0.00 0.00 0.00 73 1019.1
20200403020941 41 108 0.0 0.0 0.00 0.00 0.00 73 1019.2
20200403020451 41 108 0.0 0.0 0.00 0.00 0.00 73 1019.2
20200403015942 41 108 0.0 0.0 0.00 0.00 0.00 72 1019.2
20200403015435 41 108 0.0 0.0 0.00 0.00 0.00 72 1019.2
20200403014943 42 108 0.0 1.0 0.00 0.00 0.00 72 1019.3
20200403014451 42 108 0.0 1.0 0.00 0.00 0.00 71 1019.3
20200403013939 42 121 0.0 1.0 0.00 0.00 0.00 71 1019.3
20200403013449 42 89 0.0 0.0 0.00 0.00 0.00 70 1019.2
20200403012938 42 89 0.0 1.0 0.00 0.00 0.00 71 1019.3
20200403012447 42 87 0.0 1.0 0.00 0.00 0.00 70 1019.2
20200403011935 42 108 0.0 2.0 0.00 0.00 0.00 69 1019.2
20200403011444 42 114 1.0 3.0 0.00 0.00 0.00 69 1019.1
20200403010937 43 120 0.0 3.0 0.00 0.00 0.00 69 1019.0
20200403010447 43 92 0.0 2.0 0.00 0.00 0.00 69 1019.1
20200403005936 43 102 0.0 1.0 0.00 0.00 0.00 71 1019.0
20200403005445 43 92 0.0 1.0 0.00 0.00 0.00 71 1019.0
20200403004953 43 100 0.0 1.0 0.00 0.00 0.00 70 1019.0
20200403004443 43 115 0.0 1.0 0.00 0.00 0.00 71 1019.0
20200403003952 43 106 0.0 1.0 0.00 0.00 0.00 72 1019.1
20200403003441 43 100 0.0 1.0 0.00 0.00 0.00 71 1019.2
20200403002951 44 105 0.0 3.0 0.00 0.00 0.00 71 1019.3
20200403002444 44 93 0.0 3.0 0.00 0.00 0.00 70 1019.3
20200403001953 44 96 1.0 2.0 0.00 0.00 0.00 69 1019.2
20200403001442 45 93 0.0 3.0 0.00 0.00 0.00 68 1019.2
20200403000952 45 91 0.0 3.0 0.00 0.00 0.00 67 1019.2
20200403000445 46 94 0.0 3.0 0.00 0.00 0.00 65 1019.2
20200402235951 46 104 2.0 4.0 0.00 0.00 0.00 61 1019.2
20200402235441 46 110 2.0 4.0 0.00 0.00 0.00 60 1019.4
20200402234949 47 127 1.0 4.0 0.00 0.00 0.00 61 1019.4
20200402234435 47 119 1.0 4.0 0.00 0.00 0.00 59 1019.4
20200402233948 47 122 1.0 4.0 0.00 0.00 0.00 59 1019.5
20200402233435 48 119 0.0 3.0 0.00 0.00 0.00 58 1019.5
20200402232945 48 101 0.0 3.0 0.00 0.00 0.00 58 1019.5
20200402232436 48 136 0.0 2.0 0.00 0.00 0.00 58 1019.6
20200402231946 48 104 0.0 5.0 0.00 0.00 0.00 59 1019.6
20200402231435 48 113 2.0 5.0 0.00 0.00 0.00 58 1019.5
20200402230945 49 121 1.0 4.0 0.00 0.00 0.00 58 1019.5
20200402230454 49 111 2.0 4.0 0.00 0.00 0.00 58 1019.6
20200402225943 49 89 2.0 3.0 0.00 0.00 0.00 58 1019.6
20200402225436 49 111 1.0 4.0 0.00 0.00 0.00 58 1019.6
20200402224946 49 94 2.0 4.0 0.00 0.00 0.00 57 1019.5
20200402224437 49 91 1.0 4.0 0.00 0.00 0.00 58 1019.5
20200402223945 49 124 3.0 5.0 0.00 0.00 0.00 58 1019.4
20200402223434 50 98 3.0 5.0 0.00 0.00 0.00 57 1019.5
20200402222944 50 101 1.0 6.0 0.00 0.00 0.00 55 1019.4
20200402222454 50 101 3.0 6.0 0.00 0.00 0.00 53 1019.4
20200402221941 51 51 1.0 6.0 0.00 0.00 0.00 54 1019.4
20200402221449 51 94 3.0 6.0 0.00 0.00 0.00 53 1019.4
20200402220940 51 103 2.0 8.0 0.00 0.00 0.00 52 1019.4
20200402220452 51 105 2.0 8.0 0.00 0.00 0.00 52 1019.4
20200402215941 51 122 3.0 6.0 0.00 0.00 0.00 50 1019.5
20200402215451 51 87 2.0 6.0 0.00 0.00 0.00 51 1019.4
20200402214941 51 128 2.0 6.0 0.00 0.00 0.00 51 1019.5
20200402214451 51 106 4.0 6.0 0.00 0.00 0.00 51 1019.6
20200402213940 51 101 3.0 8.0 0.00 0.00 0.00 50 1019.6
20200402213449 51 101 4.0 8.0 0.00 0.00 0.00 49 1019.5
20200402212941 51 77 4.0 7.0 0.00 0.00 0.00 49 1019.6
20200402212452 51 133 1.0 9.0 0.00 0.00 0.00 51 1019.5
20200402211941 51 136 4.0 9.0 0.00 0.00 0.00 51 1019.5
20200402211452 50 116 2.0 7.0 0.00 0.00 0.00 52 1019.6
20200402210939 50 134 4.0 7.0 0.00 0.00 0.00 52 1019.6
20200402210450 50 122 3.0 6.0 0.00 0.00 0.00 52 1019.6
20200402205938 50 92 3.0 6.0 0.00 0.00 0.00 51 1019.7
20200402205449 50 131 2.0 7.0 0.00 0.00 0.00 52 1019.7
20200402204937 50 92 4.0 7.0 0.00 0.00 0.00 50 1019.7
20200402204451 51 117 3.0 7.0 0.00 0.00 0.00 51 1019.8
20200402203939 51 145 2.0 6.0 0.00 0.00 0.00 51 1019.7
20200402203450 51 72 3.0 9.0 0.00 0.00 0.00 50 1019.8
20200402202435 52 115 5.0 12.0 0.00 0.00 0.00 50 1019.8
20200402201943 52 104 4.0 7.0 0.00 0.00 0.00 49 1019.8
20200402201452 52 116 4.0 8.0 0.00 0.00 0.00 51 1019.8
20200402200940 52 129 3.0 8.0 0.00 0.00 0.00 52 1019.9
20200402200435 51 105 4.0 8.0 0.00 0.00 0.00 51 1019.9
20200402195945 51 88 3.0 8.0 0.00 0.00 0.00 51 1019.9
20200402195435 51 98 4.0 9.0 0.00 0.00 0.00 51 1020.0
20200402194944 52 101 5.0 9.0 0.00 0.00 0.00 52 1019.9
20200402194450 52 113 5.0 8.0 0.00 0.00 0.00 52 1020.0
20200402193937 52 92 3.0 7.0 0.00 0.00 0.00 53 1020.0
20200402193447 52 116 4.0 9.0 0.00 0.00 0.00 54 1020.0
20200402192936 52 40 4.0 10.0 0.00 0.00 0.00 53 1020.1
20200402192447 52 101 3.0 10.0 0.00 0.00 0.00 55 1020.1
20200402191938 52 111 4.0 9.0 0.00 0.00 0.00 54 1020.1
20200402191446 52 93 5.0 8.0 0.00 0.00 0.00 55 1020.2
20200402190935 52 101 3.0 6.0 0.00 0.00 0.00 54 1020.4
20200402190447 52 155 3.0 6.0 0.00 0.00 0.00 56 1020.4
20200402185935 51 118 3.0 6.0 0.00 0.00 0.00 56 1020.4
20200402185446 51 37 3.0 5.0 0.00 0.00 0.00 57 1020.5
20200402184934 51 104 3.0 7.0 0.00 0.00 0.00 57 1020.5
20200402184443 51 75 2.0 7.0 0.00 0.00 0.00 58 1020.5
20200402183951 52 113 3.0 7.0 0.00 0.00 0.00 57 1020.6
20200402183446 51 120 1.0 8.0 0.00 0.00 0.00 58 1020.6
20200402182935 51 83 2.0 8.0 0.00 0.00 0.00 58 1020.7
20200402182445 51 119 3.0 8.0 0.00 0.00 0.00 59 1020.7
20200402181933 51 116 4.0 11.0 0.00 0.00 0.00 59 1020.8
20200402181443 51 120 4.0 11.0 0.00 0.00 0.00 60 1020.9
20200402180952 51 115 3.0 8.0 0.00 0.00 0.00 60 1021.0
20200402180443 51 115 3.0 9.0 0.00 0.00 0.00 60 1021.0
20200402175951 50 109 3.0 9.0 0.00 0.00 0.00 60 1021.1
20200402175440 51 88 4.0 7.0 0.00 0.00 0.00 61 1021.1
20200402174933 51 113 2.0 6.0 0.00 0.00 0.00 61 1021.2
20200402174441 51 124 3.0 8.0 0.00 0.00 0.00 60 1021.2
20200402173948 51 117 2.0 8.0 0.00 0.00 0.00 62 1021.2
20200402173438 51 83 2.0 7.0 0.00 0.00 0.00 60 1021.3
20200402172946 51 117 4.0 8.0 0.00 0.00 0.00 60 1021.4
20200402172436 51 139 2.0 8.0 0.00 0.00 0.00 61 1021.4
20200402171944 51 99 1.0 8.0 0.00 0.00 0.00 60 1021.4
20200402171433 51 90 3.0 7.0 0.00 0.00 0.00 61 1021.5
20200402170942 51 102 2.0 7.0 0.00 0.00 0.00 60 1021.5
20200402170437 51 85 1.0 7.0 0.00 0.00 0.00 60 1021.6
20200402165946 51 127 3.0 7.0 0.00 0.00 0.00 59 1021.7
20200402165435 51 134 1.0 6.0 0.00 0.00 0.00 60 1021.7
20200402164944 50 108 0.0 6.0 0.00 0.00 0.00 62 1021.8
20200402164432 50 141 4.0 6.0 0.00 0.00 0.00 60 1021.9
20200402163941 50 89 1.0 7.0 0.00 0.00 0.00 62 1021.9
20200402163450 50 85 1.0 7.0 0.00 0.00 0.00 63 1022.0
20200402162938 50 120 2.0 5.0 0.00 0.00 0.00 62 1022.0
20200402162447 49 134 2.0 5.0 0.00 0.00 0.00 62 1022.2
20200402161941 49 36 3.0 5.0 0.00 0.00 0.00 63 1022.2
20200402161450 49 118 2.0 6.0 0.00 0.00 0.00 63 1022.1
20200402160938 49 53 3.0 9.0 0.00 0.00 0.00 62 1022.1
20200402160449 49 98 3.0 9.0 0.00 0.00 0.00 64 1022.2
20200402155937 48 115 0.0 7.0 0.00 0.00 0.00 63 1022.1
20200402155447 48 112 1.0 7.0 0.00 0.00 0.00 65 1022.1
20200402154937 48 96 2.0 8.0 0.00 0.00 0.00 64 1022.2
20200402154446 48 90 3.0 8.0 0.00 0.00 0.00 65 1022.3
20200402153938 48 122 2.0 7.0 0.00 0.00 0.00 66 1022.2
20200402153448 47 91 4.0 7.0 0.00 0.00 0.00 67 1022.2
20200402152937 47 94 2.0 5.0 0.00 0.00 0.00 67 1022.3
20200402152447 47 53 0.0 5.0 0.00 0.00 0.00 67 1022.3
20200402151933 47 101 2.0 5.0 0.00 0.00 0.00 68 1022.4
20200402151443 46 114 2.0 5.0 0.00 0.00 0.00 68 1022.4
20200402150951 46 95 1.0 5.0 0.00 0.00 0.00 69 1022.3
20200402150441 46 129 2.0 5.0 0.00 0.00 0.00 68 1022.4
20200402145949 46 84 1.0 3.0 0.00 0.00 0.00 70 1022.4
20200402145443 45 107 1.0 6.0 0.00 0.00 0.00 71 1022.4
20200402144951 44 76 1.0 6.0 0.00 0.00 0.00 72 1022.4
20200402144440 44 113 2.0 6.0 0.00 0.00 0.00 72 1022.4
20200402143949 45 131 3.0 6.0 0.00 0.00 0.00 73 1022.4
20200402143439 44 117 1.0 6.0 0.00 0.00 0.00 74 1022.4
20200402142948 44 96 3.0 6.0 0.00 0.00 0.00 74 1022.3
20200402142438 43 108 0.0 4.0 0.00 0.00 0.00 75 1022.3
20200402141946 43 62 1.0 4.0 0.00 0.00 0.00 75 1022.3
20200402141435 43 93 2.0 4.0 0.00 0.00 0.00 77 1022.3
20200402140948 43 90 1.0 4.0 0.00 0.00 0.00 78 1022.3
20200402140439 43 74 1.0 4.0 0.00 0.00 0.00 78 1022.3
20200402135435 41 110 0.0 3.0 0.00 0.00 0.00 81 1022.4
20200402134943 41 148 1.0 6.0 0.00 0.00 0.00 81 1022.5
20200402134433 41 121 2.0 6.0 0.00 0.00 0.00 82 1022.5
20200402133941 40 127 1.0 2.0 0.00 0.00 0.00 84 1022.5
20200402133450 39 110 1.0 2.0 0.00 0.00 0.00 85 1022.5
20200402132940 39 105 0.0 1.0 0.00 0.00 0.00 86 1022.5
20200402132451 39 96 0.0 1.0 0.00 0.00 0.00 87 1022.5
20200402131939 38 113 0.0 0.0 0.00 0.00 0.00 89 1022.5
20200402131449 38 125 0.0 0.0 0.00 0.00 0.00 90 1022.5
20200402130937 38 113 0.0 0.0 0.00 0.00 0.00 90 1022.4
20200402130449 38 274 0.0 0.0 0.00 0.00 0.00 92 1022.3
20200402125937 39 274 0.0 0.0 0.00 0.00 0.00 97 1022.3
20200402125446 38 274 0.0 0.0 0.00 0.00 0.00 97 1022.4
20200402124935 38 274 0.0 0.0 0.00 0.00 0.00 97 1022.4
20200402124444 38 274 0.0 0.0 0.00 0.00 0.00 97 1022.4
20200402123936 33 274 0.0 0.0 0.00 0.00 0.00 94 1022.3
20200402123445 33 274 0.0 0.0 0.00 0.00 0.00 94 1022.2
20200402122932 33 274 0.0 0.0 0.00 0.00 0.00 94 1022.1
20200402122441 33 274 0.0 0.0 0.00 0.00 0.00 94 1022.1
20200402121950 34 274 0.0 0.0 0.00 0.00 0.00 97 1022.1
20200402121439 35 274 0.0 0.0 0.00 0.00 0.00 97 1022.0
20200402120947 31 274 0.0 0.0 0.00 0.00 0.00 93 1021.9
20200402120439 32 274 0.0 0.0 0.00 0.00 0.00 95 1022.0
20200402115932 30 274 0.0 0.0 0.00 0.00 0.00 93 1021.9
20200402115440 31 274 0.0 0.0 0.00 0.00 0.00 94 1021.8
20200402114949 33 274 0.0 0.0 0.00 0.00 0.00 97 1021.9
20200402114439 35 274 0.0 0.0 0.00 0.00 0.00 97 1021.9
20200402113948 32 274 0.0 0.0 0.00 0.00 0.00 97 1021.8
20200402113437 32 274 0.0 0.0 0.00 0.00 0.00 97 1021.8
20200402112945 31 274 0.0 0.0 0.00 0.00 0.00 97 1021.7
20200402112431 30 274 0.0 0.0 0.00 0.00 0.00 96 1021.7
20200402111940 28 274 0.0 0.0 0.00 0.00 0.00 95 1021.8
20200402111433 28 274 0.0 0.0 0.00 0.00 0.00 95 1021.7
20200402110943 28 274 0.0 0.0 0.00 0.00 0.00 95 1021.6
20200402110434 28 274 0.0 0.0 0.00 0.00 0.00 95 1021.5
20200402105942 28 274 0.0 0.0 0.00 0.00 0.00 95 1021.4
20200402105452 28 274 0.0 0.0 0.00 0.00 0.00 95 1021.4
20200402104939 28 274 0.0 0.0 0.00 0.00 0.00 95 1021.4
20200402104450 28 274 0.0 0.0 0.00 0.00 0.00 94 1021.3
20200402103939 28 274 0.0 0.0 0.00 0.00 0.00 94 1021.2
20200402103448 28 274 0.0 0.0 0.00 0.00 0.00 94 1021.0
20200402102941 29 274 0.0 0.0 0.00 0.00 0.00 94 1021.0
20200402102450 29 274 0.0 0.0 0.00 0.00 0.00 94 1021.1
20200402101938 29 274 0.0 0.0 0.00 0.00 0.00 95 1021.0
20200402101448 30 274 0.0 0.0 0.00 0.00 0.00 95 1021.0
20200402100937 31 274 0.0 0.0 0.00 0.00 0.00 97 1021.0
20200402100448 33 274 0.0 0.0 0.00 0.00 0.00 97 1021.1
20200402095936 34 274 0.0 0.0 0.00 0.00 0.00 97 1021.0
20200402095446 35 274 0.0 0.0 0.00 0.00 0.00 97 1021.0
20200402094933 29 275 0.0 0.0 0.00 0.00 0.00 95 1021.0
20200402094448 29 275 0.0 0.0 0.00 0.00 0.00 95 1021.0
20200402093937 29 275 0.0 0.0 0.00 0.00 0.00 94 1021.0
20200402093447 29 275 0.0 0.0 0.00 0.00 0.00 94 1020.9
20200402092935 29 275 0.0 0.0 0.00 0.00 0.00 94 1020.9
20200402092446 30 275 0.0 0.0 0.00 0.00 0.00 95 1020.9
20200402091445 30 275 0.0 0.0 0.00 0.00 0.00 94 1020.8
20200402090934 30 275 0.0 0.0 0.00 0.00 0.00 94 1020.8
20200402090445 30 275 0.0 0.0 0.00 0.00 0.00 94 1020.7
20200402085938 31 275 0.0 0.0 0.00 0.00 0.00 96 1020.6
20200402085447 30 275 0.0 0.0 0.00 0.00 0.00 94 1020.6